Location: Malanoce
(44.2500°N, 7.4667°E)
Time: 04:53:08
(UTC+00:00)

Cosmos 2058 - Pass Details

Date: 17 November 2025
Orbit: 529 x 540 km, 82.5° (Epoch: 09 December)

Event Time Altitude Azimuth Distance (km) Brightness Sun altitude
Rises 17:37:18 0° 351° (N) 2,704 6.3 -17.1°
Reaches altitude 10° 17:39:27 10° 351° (N) 1,810 5.4 -17.5°
Maximum altitude 17:43:27 89° 255° (WSW) 547 2.7 -18.2°
Drops below altitude 10° 17:47:25 10° 173° (S) 1,800 5.5 -18.9°
Sets 17:49:33 0° 173° (S) 2,688 6.4 -19.3°
